Home > Time Zones > World Clock > Weather > Iran > Kerman > Past weeks

Flag for Iran Weather past 2 weeks in Kerman, Iran

Now
93 °F

Passing clouds.


Feels Like: 89 °F
Forecast: 67 / 92 °F
Wind: 7 mph from North

Location: Kerman Airport

Current Time: Sep 1, 2015 at 2:54:13 PM

Latest Report: Sep 1, 2015 at 2:30 PM


Visibility: N/A

Pressure: 30.04 "Hg (24.69 "Hg at 1762m altitude)

Humidity: 6%

Dew point: 18 °F

Location of KermanLocation

Historic Weather in Kerman — Graph

°F

Kerman temperature yesterday

Maximum temperature yesterday: 93 °F (at 4:30 PM)
Minimum temperature yesterday: 61 °F (at 6:30 AM)
Average temperature yesterday: 80 °F

Past Weeks' High & Low Weather Summary

 TemperatureHumidityPressure
High99 °F (Aug 24, 4:30 PM)34% (Aug 24, 3:30 PM)30.21 "Hg (Aug 24, 3:30 PM)
Low55 °F (Aug 19, 5:30 AM)0% (Aug 19, 5:30 PM)29.89 "Hg (Aug 24, 4:30 PM)
Average82 °F12%30.06 "Hg
* Reported Aug 17 1:30 PM — Sep 1 1:30 PM, Kerman, Weather by CustomWeather, © 2015

Note: Actual official high and low records may vary slightly from our data, if they occured in-between our weather recording intervals... More about our weather records

Advertising

Kerman weather history for previous 24 hours

 ConditionsComfort  
Time TempWeatherWind HumidityBarometerVisibility
1:30 PM
Tue, Sep 1
91 °FPassing clouds.5 mph7%30.07 "HgN/A
12:30 PM90 °FPassing clouds.7 mph7%30.09 "HgN/A
11:30 AM88 °FSunny.5 mph9%30.12 "Hg10 mi
10:30 AM82 °FSunny.5 mph10%30.15 "Hg10 mi
9:30 AM84 °FSunny.No wind10%30.15 "Hg10 mi
8:30 AM72 °FSunny.5 mph17%30.15 "Hg10 mi
7:30 AM61 °FClear.No wind23%30.15 "Hg10 mi
6:30 AM57 °FClear.7 mph27%30.15 "Hg10 mi
5:30 AM61 °FClear.5 mph23%30.12 "Hg10 mi
4:30 AM64 °FClear.5 mph21%30.12 "Hg10 mi
3:30 AM63 °FClear.5 mph22%30.12 "Hg10 mi
2:30 AM68 °FClear.7 mph18%30.12 "Hg10 mi
1:30 AM73 °FClear.7 mph14%30.15 "Hg10 mi
12:30 AM77 °FClear.9 mph12%30.15 "Hg10 mi
11:30 PM
Mon, Aug 31
79 °FClear.9 mph12%30.15 "Hg10 mi
10:30 PM79 °FClear.9 mph12%30.15 "Hg10 mi
9:30 PM81 °FClear.14 mph11%30.15 "Hg10 mi
8:30 PM81 °FSunny.16 mph11%30.12 "Hg10 mi
7:30 PM82 °FSunny.22 mph9%30.12 "Hg10 mi
7:00 PM84 °FSunny.16 mph10%30.09 "Hg10 mi
6:30 PM88 °FSunny.21 mph9%30.09 "Hg10 mi
6:00 PM90 °FSunny.16 mph7%30.09 "Hg10 mi
5:30 PM91 °FSunny.14 mph7%30.09 "Hg10 mi
5:00 PM91 °FPassing clouds.18 mph10%30.09 "HgN/A
4:30 PM93 °FPassing clouds.18 mph10%30.09 "HgN/A
3:30 PM91 °FSunny.18 mph10%30.09 "Hg10 mi
2:30 PM91 °FSunny.23 mph10%30.12 "Hg10 mi
Weather by CustomWeather, © 2015

See weather overviewHow to use our weather pages